{"data":{"norad_id":57203,"intl_designator":"2023-091AP","name":"UTMN 2 (RS27S)","alt_names":[],"object_type":"PAYLOAD","status":"ACTIVE","operator":null,"country":"CIS","launch_date":"2023-06-27","launch_site_code":"VOSTO","launch_vehicle":null,"mission":null,"orbit_class":"UNKNOWN","rcs_meters":null,"size_class":null,"mass_kg":null,"dimensions":null,"purposes":["comms"],"wikipedia_slug":null,"has_3d_model":false,"image_url":null,"decayed_at":null,"tle_current":{"epoch":"2026-05-25T04:42:41.430240Z","epoch_age_seconds":58089,"freshness":"FRESH","line1":"1 57203U 23091AP  26145.19631285  .00013468  00000+0  44593-3 0  9994","line2":"2 57203  97.5098 212.1085 0009147 152.5854 207.5872 15.31396568161025","mean_motion":15.31396568,"eccentricity":0.0009147,"inclination_deg":97.5098,"raan_deg":212.1085,"arg_perigee_deg":152.5854,"mean_anomaly_deg":207.5872,"bstar":0.00044593,"rev_number":16102,"period_min":94.0318158007,"perigee_km":465.37916429206,"apogee_km":477.91015486009,"semimajor_km":6849.7816595761,"source":"CELESTRAK","updated_at":"2026-05-25T13:38:23.292906Z"}}}